WD9EKA Weather Reports


Display with metric or nautical units.
time (UTC)temp
F
wind
direction
speed
MPH
gust
MPH
rain 1hr
in
rain 24hr
in
rain mn
in
humidity
%
barometer
mb
20260506151733 50 258 0.0 0.0 0.00 0.64 0.00 90 1009.6
20260506151233 50 251 0.0 0.0 0.00 0.65 0.00 91 1009.6
20260506150033 50 281 0.0 0.0 0.00 0.66 0.00 90 1009.5
20260506145433 50 272 0.0 0.0 0.00 0.66 0.00 91 1009.4
20260506144933 50 302 1.0 2.0 0.00 0.66 0.00 91 1009.3
20260506144333 50 310 0.0 0.0 0.00 0.66 0.00 92 1009.6
20260506143733 50 316 0.0 0.0 0.00 0.66 0.00 92 1009.4
20260506143133 50 291 0.0 1.0 0.00 0.66 0.00 93 1009.7
20260506142533 50 301 0.0 0.0 0.00 0.67 0.00 95 1009.4
20260506142033 49 297 0.0 0.0 0.00 0.69 0.00 98 1009.5
20260506141433 49 275 0.0 0.0 0.00 0.69 0.00 99 1009.2
20260506140933 49 308 0.0 0.0 0.00 0.69 0.00 99 1009.4
20260506140333 48 313 0.0 0.0 0.00 0.69 0.00 99 1009.3
20260506135833 48 325 0.0 0.0 0.00 0.69 0.00 99 1009.2
20260506134633 48 304 0.0 2.0 0.00 0.69 0.00 99 1009.3
20260506133604 48 252 3.0 3.0 0.00 0.74 0.00 99 1009.1
20260506133034 48 255 3.0 4.0 0.00 0.74 0.00 99 1009.1
20260506132433 48 249 4.0 4.0 0.00 0.77 0.00 99 1009.2
20260506131833 48 253 2.0 3.0 0.00 0.79 0.00 99 1009.3
20260506131233 47 287 0.0 0.0 0.00 0.80 0.00 99 1009.1
20260506130633 47 267 0.0 0.0 0.00 0.80 0.00 99 1009.1
20260506130034 47 321 0.0 0.0 0.00 0.80 0.00 99 1008.8
20260506125433 47 283 0.0 0.0 0.00 0.80 0.00 99 1009.1
20260506124833 47 243 0.0 0.0 0.00 0.80 0.00 99 1009.3
20260506124233 46 277 0.0 0.0 0.00 0.80 0.00 99 1008.8
20260506123633 46 273 0.0 0.0 0.00 0.80 0.00 99 1008.5
20260506123033 46 281 0.0 0.0 0.00 0.80 0.00 99 1008.5
20260506122433 46 212 0.0 0.0 0.00 0.80 0.00 99 1008.4
20260506121833 46 222 0.0 0.0 0.00 0.80 0.00 99 1008.4
20260506121233 45 230 0.0 0.0 0.00 0.80 0.00 99 1008.6
20260506120633 45 231 0.0 0.0 0.00 0.80 0.00 99 1008.7
20260506114233 45 313 0.0 0.0 0.00 0.80 0.00 99 1008.0
20260506113633 44 313 0.0 0.0 0.00 0.80 0.00 99 1007.9
20260506113033 44 313 0.0 0.0 0.00 0.80 0.00 99 1007.9
20260506112433 43 313 0.0 0.0 0.00 0.80 0.00 99 1007.6
20260506111233 43 313 0.0 0.0 0.00 0.80 0.00 99 1007.8
20260506110633 43 313 0.0 0.0 0.00 0.80 0.00 99 1007.8
20260506110033 43 313 0.0 0.0 0.00 0.80 0.00 99 1007.5
20260506105533 43 313 0.0 0.0 0.00 0.80 0.00 99 1007.4
20260506104933 43 313 0.0 0.0 0.00 0.80 0.00 99 1007.7
20260506103733 43 313 0.0 0.0 0.00 0.80 0.00 99 1007.2
20260506102533 44 313 0.0 0.0 0.00 0.80 0.00 99 1007.2
20260506101933 44 313 0.0 0.0 0.00 0.80 0.00 99 1007.3
20260506101333 44 314 0.0 0.0 0.00 0.80 0.00 99 1006.9
20260506100733 44 314 0.0 0.0 0.00 0.80 0.00 99 1007.2
20260506100133 44 314 0.0 0.0 0.00 0.80 0.00 99 1006.9
20260506094933 44 314 0.0 0.0 0.00 0.80 0.00 99 1006.8
20260506094333 44 314 0.0 0.0 0.00 0.80 0.00 99 1006.4
20260506093733 45 313 0.0 0.0 0.00 0.80 0.00 99 1006.8
20260506093133 45 314 0.0 0.0 0.00 0.80 0.00 99 1006.7
20260506092533 45 314 0.0 0.0 0.00 0.80 0.00 99 1006.1
20260506091933 45 314 0.0 0.0 0.00 0.80 0.00 99 1006.0
20260506091333 45 314 0.0 0.0 0.00 0.80 0.00 99 1006.1
20260506090833 45 314 0.0 0.0 0.00 0.81 0.00 99 1006.3
20260506090332 45 314 0.0 0.0 0.00 0.81 0.00 99 1006.7
20260506085812 45 314 0.0 0.0 0.00 0.81 0.00 99 1007.0
20260506084733 45 253 0.0 0.0 0.00 0.83 0.00 99 1006.8
20260506084133 45 259 0.0 0.0 0.00 0.84 0.00 99 1006.6
20260506083033 45 264 0.0 0.0 0.00 0.87 0.00 99 1006.7
20260506082433 45 307 0.0 0.0 0.00 0.88 0.00 99 1006.3
20260506081833 45 307 0.0 0.0 0.00 0.89 0.00 99 1005.7
20260506080633 45 307 0.0 0.0 0.00 0.92 0.00 99 1006.2
20260506073133 45 307 0.0 0.0 0.00 1.01 0.00 99 1005.7
20260506072633 44 307 0.0 0.0 0.00 1.03 0.00 99 1005.6
20260506072033 45 307 0.0 0.0 0.00 1.03 0.00 99 1006.1
20260506071433 45 307 0.0 0.0 0.00 1.04 0.00 99 1006.2
20260506070833 45 307 0.0 0.0 0.00 1.06 0.00 99 1006.5
20260506070233 44 312 0.0 0.0 0.00 1.06 0.00 99 1006.1
20260506062124 44 313 0.0 0.0 0.00 1.20 0.00 99 1006.1
20260506061605 44 316 0.0 0.0 0.00 1.20 0.00 99 1006.1
20260506061044 44 320 0.0 0.0 0.00 1.20 0.00 99 1005.9
20260506060534 44 269 0.0 0.0 0.00 1.20 0.00 99 1006.0
20260506051133 44 271 0.0 0.0 0.01 1.20 0.00 99 1006.3
20260506050533 44 270 0.0 0.0 0.01 1.20 0.00 99 1006.0
20260506044734 44 271 0.0 0.0 0.03 1.20 1.20 99 1006.2
20260506044134 44 271 0.0 0.0 0.04 1.20 1.20 99 1006.3
20260506043533 44 271 0.0 0.0 0.04 1.20 1.20 99 1006.4
20260506042934 44 289 0.0 0.0 0.04 1.20 1.20 99 1006.5
20260506042334 44 289 0.0 0.0 0.04 1.19 1.19 99 1006.2
20260506041734 44 163 0.0 0.0 0.05 1.19 1.19 99 1006.4
20260506041134 43 75 0.0 0.0 0.05 1.19 1.19 99 1006.4
20260506035934 44 66 0.0 0.0 0.04 1.18 1.18 99 1006.4
20260506035333 44 67 0.0 0.0 0.03 1.17 1.17 99 1006.7
20260506034733 43 67 0.0 0.0 0.03 1.17 1.17 99 1006.5
20260506034134 43 67 0.0 0.0 0.02 1.16 1.16 99 1007.0
20260506033534 43 67 0.0 1.0 0.02 1.16 1.16 99 1006.8
20260506032933 43 67 1.0 1.0 0.03 1.16 1.16 99 1006.4
20260506032334 43 35 0.0 0.0 0.02 1.15 1.15 99 1006.3
20260506031733 44 7 0.0 0.0 0.02 1.14 1.14 99 1006.3
20260506031134 44 341 0.0 0.0 0.02 1.14 1.14 99 1006.1
20260506030534 43 341 0.0 0.0 0.02 1.14 1.14 99 1006.2
20260506025933 44 281 0.0 0.0 0.04 1.14 1.14 99 1005.7
20260506025333 44 291 0.0 0.0 0.07 1.14 1.14 99 1005.6
20260506024733 44 280 0.0 0.0 0.10 1.14 1.14 99 1005.9
20260506024133 44 104 0.0 0.0 0.11 1.14 1.14 99 1005.7
20260506023534 44 203 0.0 0.0 0.12 1.14 1.14 99 1005.7
20260506022934 44 231 0.0 0.0 0.11 1.13 1.13 99 1005.3
20260506022333 44 354 2.0 3.0 0.11 1.13 1.13 99 1005.0
20260506021734 44 12 2.0 2.0 0.10 1.12 1.12 99 1004.8
20260506021133 44 64 2.0 3.0 0.11 1.12 1.12 99 1005.4
20260506020533 44 108 0.0 2.0 0.10 1.11 1.11 99 1005.5
20260506015933 45 242 1.0 2.0 0.09 1.10 1.10 99 1005.0
20260506015334 47 29 1.0 2.0 0.07 1.07 1.07 99 1005.3
20260506014733 47 259 0.0 0.0 0.08 1.04 1.04 99 1005.5
20260506014134 47 286 0.0 0.0 0.08 1.03 1.03 99 1005.1
20260506013534 47 305 3.0 4.0 0.09 1.02 1.02 99 1004.1
20260506012934 47 103 0.0 0.0 0.09 1.02 1.02 99 1004.2
20260506012334 47 145 0.0 0.0 0.10 1.02 1.02 99 1003.9
20260506011734 47 220 0.0 0.0 0.10 1.02 1.02 99 1004.0
20260506011133 47 316 0.0 0.0 0.09 1.01 1.01 99 1004.3
20260506010628 47 109 0.0 0.0 0.10 1.01 1.01 99 1004.1
20260506010108 47 270 0.0 0.0 0.10 1.01 1.01 99 1004.7
20260506005539 47 138 0.0 0.0 0.09 1.00 1.00 99 1004.0
20260506005034 48 102 0.0 0.0 0.07 0.98 0.98 99 1004.4
20260506004434 48 232 3.0 3.0 0.04 0.95 0.95 99 1005.4
20260506003833 48 118 0.0 0.0 0.02 0.93 0.93 99 1003.9
20260506003233 48 1 0.0 0.0 0.02 0.93 0.93 99 1004.0
20260506002633 48 76 0.0 0.0 0.02 0.92 0.92 99 1003.4
20260506002033 48 127 0.0 0.0 0.02 0.92 0.92 99 1003.4
20260506001434 48 116 0.0 0.0 0.02 0.92 0.92 99 1003.5
20260506000834 48 68 0.0 0.0 0.02 0.92 0.92 99 1003.9
20260506000234 48 36 0.0 0.0 0.02 0.91 0.91 99 1004.1
20260505235633 48 44 0.0 0.0 0.03 0.91 0.91 99 1003.8
20260505235033 48 158 0.0 0.0 0.03 0.91 0.91 99 1003.9
20260505234433 48 313 0.0 0.0 0.03 0.91 0.91 99 1004.4
20260505233234 48 63 0.0 0.0 0.05 0.91 0.91 99 1004.1
20260505232033 48 359 0.0 0.0 0.05 0.90 0.90 99 1004.1
20260505231434 48 260 0.0 0.0 0.05 0.90 0.90 99 1004.1
20260505230833 48 354 0.0 0.0 0.06 0.90 0.90 99 1003.9
20260505230233 48 127 0.0 1.0 0.05 0.88 0.88 99 1004.0
20260505225634 48 197 0.0 0.0 0.06 0.88 0.88 99 1004.0
20260505225034 48 62 0.0 0.0 0.07 0.88 0.88 99 1004.3
20260505224433 48 358 0.0 0.0 0.08 0.88 0.88 99 1004.0
20260505223833 48 114 0.0 0.0 0.08 0.87 0.87 99 1004.0
20260505223234 48 346 0.0 0.0 0.08 0.86 0.86 99 1004.0
20260505222634 48 236 0.0 0.0 0.09 0.86 0.86 99 1004.2
20260505222033 48 256 0.0 1.0 0.08 0.85 0.85 99 1004.2
20260505221433 48 68 0.0 2.0 0.09 0.85 0.85 99 1004.2
20260505220834 48 262 0.0 0.0 0.09 0.84 0.84 99 1004.4
20260505220233 48 223 0.0 0.0 0.09 0.83 0.83 99 1004.6
20260505215634 48 212 0.0 0.0 0.09 0.82 0.82 99 1004.5
20260505215033 48 251 0.0 0.0 0.09 0.81 0.81 99 1004.4
20260505214433 49 65 5.0 9.0 0.08 0.80 0.80 99 1004.4
20260505213933 49 348 2.0 3.0 0.08 0.79 0.79 99 1004.3
20260505213413 49 246 0.0 0.0 0.07 0.78 0.78 99 1004.1
20260505212852 49 71 0.0 1.0 0.07 0.78 0.78 99 1004.0
20260505212334 49 171 0.0 0.0 0.06 0.77 0.77 99 1004.0
20260505211829 49 298 0.0 0.0 0.06 0.76 0.76 99 1003.6
20260505211253 49 294 4.0 6.0 0.06 0.76 0.76 99 1004.1
20260505210734 50 356 0.0 0.0 0.05 0.75 0.75 99 1004.4
20260505210133 49 76 0.0 0.0 0.05 0.74 0.74 99 1004.2
20260505205533 49 78 0.0 0.0 0.04 0.73 0.73 99 1004.3
20260505205029 49 73 0.0 1.0 0.03 0.72 0.72 99 1004.4
20260505204509 49 322 0.0 1.0 0.03 0.72 0.72 99 1004.7
20260505203949 49 257 0.0 0.0 0.02 0.71 0.71 99 1004.7
20260505203429 49 258 0.0 0.0 0.02 0.71 0.71 99 1004.8
20260505202909 49 266 0.0 0.0 0.02 0.71 0.71 99 1004.8
20260505202349 49 286 0.0 0.0 0.02 0.71 0.71 99 1004.6
20260505201833 49 257 0.0 0.0 0.01 0.70 0.70 99 1004.6
20260505201234 49 277 0.0 0.0 0.01 0.70 0.70 99 1004.7
20260505200633 48 282 0.0 0.0 0.00 0.69 0.69 99 1004.7
20260505200125 48 320 0.0 0.0 0.00 0.69 0.69 99 1004.8
20260505195605 48 238 0.0 2.0 0.00 0.69 0.69 99 1004.7
20260505195045 49 313 0.0 0.0 0.00 0.69 0.69 99 1004.8
20260505194433 49 271 0.0 0.0 0.00 0.69 0.69 99 1004.8
20260505193833 49 234 0.0 0.0 0.00 0.69 0.69 99 1004.6
20260505193233 49 269 0.0 0.0 0.00 0.69 0.69 99 1004.5
20260505192634 50 293 0.0 0.0 0.00 0.69 0.69 99 1004.3
20260505192125 50 312 0.0 1.0 0.00 0.69 0.69 99 1004.5
20260505191606 50 250 0.0 0.0 0.00 0.69 0.69 99 1004.5
20260505191034 50 43 0.0 0.0 0.00 0.69 0.69 99 1004.3
20260505190433 50 256 0.0 0.0 0.00 0.69 0.69 99 1004.3
20260505185933 50 246 0.0 0.0 0.00 0.69 0.69 99 1004.5
20260505185413 50 304 0.0 0.0 0.00 0.69 0.69 99 1004.6
20260505184334 50 245 0.0 0.0 0.00 0.69 0.69 99 1004.4
20260505183734 50 255 0.0 0.0 0.00 0.69 0.69 99 1004.3
20260505183221 50 261 0.0 0.0 0.00 0.69 0.69 99 1004.3
20260505182701 50 261 0.0 0.0 0.00 0.69 0.69 99 1004.2
20260505182141 50 261 0.0 0.0 0.00 0.69 0.69 99 1004.3
20260505181634 50 292 0.0 0.0 0.00 0.69 0.69 99 1004.2
20260505181033 50 292 0.0 0.0 0.00 0.69 0.69 99 1004.4
20260505180433 49 292 0.0 0.0 0.00 0.69 0.69 99 1004.2
20260505175833 50 292 0.0 0.0 0.00 0.69 0.69 99 1004.3
20260505175233 50 292 0.0 0.0 0.00 0.69 0.69 99 1004.5
20260505174634 49 316 0.0 0.0 0.00 0.69 0.69 99 1004.4
20260505174125 49 316 0.0 0.0 0.00 0.69 0.69 99 1004.3
20260505173606 49 76 0.0 0.0 0.00 0.69 0.69 99 1004.4
20260505173045 49 156 0.0 0.0 0.00 0.69 0.69 99 1004.5
20260505172433 50 4 0.0 0.0 0.01 0.69 0.69 99 1004.3
20260505171917 50 321 0.0 1.0 0.01 0.69 0.69 99 1004.3
20260505171357 50 192 1.0 2.0 0.02 0.69 0.69 99 1004.2
20260505170834 50 80 0.0 0.0 0.02 0.69 0.69 99 1004.1
20260505165725 49 85 0.0 0.0 0.03 0.70 0.69 99 1003.5
20260505164645 49 87 0.0 0.0 0.06 0.71 0.69 99 1003.7
20260505164133 49 73 0.0 0.0 0.07 0.71 0.69 99 1003.7
20260505163621 49 358 0.0 0.0 0.08 0.71 0.69 99 1004.0
20260505163101 48 73 2.0 4.0 0.10 0.71 0.69 99 1003.9
20260505162541 48 113 0.0 0.0 0.11 0.72 0.69 99 1004.3
20260505162034 48 139 0.0 0.0 0.12 0.71 0.68 99 1004.3
20260505161517 48 153 0.0 1.0 0.12 0.70 0.67 99 1004.2
20260505160957 48 91 0.0 0.0 0.12 0.70 0.67 99 1004.1
20260505160434 48 96 0.0 0.0 0.12 0.70 0.66 99 1004.4
20260505153233 48 302 0.0 0.0 0.06 0.64 0.60 99 1004.9
20260505152717 48 265 0.0 0.0 0.05 0.62 0.58 99 1005.0